Terminal Aerodrome Forecast
Issued by NWS State College, PA

Home | Current Version | Previous Version | Text Only | Print | Product List | Glossary On
Versions: 1 2 3 4 5 6 7 8 9 10 11 12 13 14 15 16 17 18 19 20 21 22 23 24 25 26 27 28 29 30 31 32 33 34 35 36 37 38 39 40 41 42 43 44 45 46 47 48 49 50
000
FTUS41 KCTP 252353
TAFMDT
TAF
KMDT 252353Z 2600/2624 22006KT P6SM SCT250
     FM260100 VRB04KT P6SM SCT250
     FM260600 VRB02KT P6SM BKN090 OVC150
     FM261900 20008G14KT P6SM VCSH SCT040 BKN120
     FM262200 24008KT 5SM -SHRA BR BKN030 OVC050=

USA.gov is the U.S. government's official web portal to all federal, state and local government web resources and services.